1377648034472,18.5287
1377648094472,18.6055
1377648154472,18.6510
1377648214472,18.6594
1377648274472,18.6688
1377648334472,18.6831
1377648394472,18.6269
1377648454472,18.6528
1377648514472,18.4759
1377648574472,18.6324
1377648634472,18.6660
1377648694472,18.5928
1377648754472,18.6503
1377648814472,18.6146
1377648874472,18.5979
1377648934472,18.5586
1377648994472,18.6009
1377649054472,18.6091
1377649114472,18.5670
1377649174472,18.6007
1377649234472,18.5687
1377649294472,18.6184
1377649354472,18.5737
1377649414472,18.5856
1377649474472,18.6363
1377649534472,18.5308
1377649594472,18.6474
1377649654472,18.5349
1377649714472,18.5897
1377649774472,18.5696
1377649834472,18.6330
1377649894472,18.5652
1377649954472,18.5646
1377650014472,18.5537
1377650074472,18.6060
1377650134472,18.6031
1377650194472,18.5901
1377650254472,18.5282
1377650314472,18.5389
1377650374472,18.5677
1377650434472,18.5762
1377650494472,18.6265
1377650554472,18.5585
1377650614472,18.5940
1377650674472,18.5452
1377650734472,18.5852
1377650794472,18.5480
1377650854472,18.6110
1377650914472,18.5181
1377650974472,18.5468
1377651034472,18.5850
1377651094472,18.5445
1377651154472,18.5823
1377651214472,18.6131
1377651274472,18.5955
1377651334472,18.5626
1377651394472,18.5510
1377651454472,18.6245
1377651514472,18.5804
1377651574472,18.5433
1377651634483,18.5793
1377651694483,18.6040
1377651754483,18.6173
1377651814483,18.6026
1377651874483,18.5970
1377651934483,18.6469
1377651994483,18.6100
1377652054483,18.6082
1377652114483,18.5887
1377652174483,18.5209
1377652234483,18.5918
1377652294483,18.6023
1377652354483,18.5473
1377652414483,18.5237
1377652474483,18.5503
1377652534483,18.5223
1377652594483,18.5727
1377652654483,18.5144
1377652714483,18.5284
1377652774483,18.4727
1377652834483,18.5418
1377652894483,18.5723
1377652954483,18.5434
1377653014483,18.5685
1377653074483,18.4940
1377653134483,18.5040
1377653194483,18.4969
1377653254483,18.5196
1377653314483,18.5070
1377653374483,18.5520
1377653434483,18.5347
1377653494483,18.5578
1377653554483,18.5851
1377653614483,18.5382
1377653674483,18.4935
1377653734483,18.5312
1377653794483,18.5727
1377653854483,18.5224
1377653914483,18.5278
1377653974483,18.5529
1377654034483,18.5580
1377654094483,18.5502
1377654154483,18.5427
1377654214483,18.5972
1377654274483,18.5623
1377654334483,18.5219
1377654394483,18.6004
1377654454483,18.6032
1377654514483,18.5517
1377654574483,18.5552
1377654634483,18.5464
1377654694483,18.5538
1377654754483,18.5694
1377654814483,18.5841
1377654874483,18.5619
1377654934483,18.6376
1377654994483,18.6095
1377655054483,18.6313
1377655114483,18.5935
1377655174483,18.5889
1377655234493,18.6394
1377655294493,18.6220
1377655354493,18.5962
1377655414493,18.6047
1377655474493,18.6333
1377655534493,18.6976
1377655594493,18.6451
1377655654493,18.6787
1377655714493,18.5991
1377655774493,18.6093
1377655834493,18.6238
1377655894493,18.5307
1377655954493,18.6146
1377656014493,18.5934
1377656074493,18.6354
1377656134493,18.6129
1377656194493,18.6010
1377656254493,18.5881
1377656314493,18.6033
1377656374493,18.5773
1377656434493,18.5999
1377656494493,18.6693
1377656554493,18.6091
1377656614493,18.5984
1377656674493,18.5781
1377656734493,18.6041
1377656794493,18.5584
1377656854493,18.6207
1377656914493,18.5646
1377656974493,18.5785
1377657034493,18.5950
1377657094493,18.6333
1377657154493,18.6144
1377657214493,18.6570
1377657274493,18.6360
1377657334493,18.7477
1377657394493,18.6799
1377657454493,18.7190
1377657514493,18.7205
1377657574493,18.6698
1377657634493,18.6435
1377657694493,18.6713
1377657754493,18.6353
1377657814493,18.6935
1377657874493,18.6763
1377657934493,18.6599
1377657994493,18.6823
1377658054493,18.6625
1377658114493,18.6982
1377658174493,18.6546
1377658234493,18.7144
1377658294493,18.6730
1377658354493,18.6396
1377658414493,18.5885
1377658474493,18.5905
1377658534493,18.6923
1377658594493,18.6923
1377658654493,18.6112
1377658714493,18.6795
1377658774493,18.6804
1377658834503,18.6530
1377658894503,18.6904
1377658954503,18.6697
1377659014503,18.6754
1377659074504,18.6749
1377659134503,18.6422
1377659194503,18.7097
1377659254503,18.6643
1377659314503,18.8113
1377659374503,18.7232
1377659434503,18.7335
1377659494503,18.6867
1377659554503,18.6713
1377659614503,18.6344
1377659674503,18.6983
1377659734503,18.6531
1377659794503,18.6718
1377659854503,18.6976
1377659914503,18.6696
1377659974503,18.5733
1377660034503,18.7253
1377660094503,18.7067
1377660154503,18.7052
1377660214503,18.7118
1377660274503,18.6702
1377660334503,18.6307
1377660394503,18.6604
1377660454504,18.6956
1377660514503,18.6359
1377660574503,18.5631
1377660634503,18.6118
1377660694503,18.6011
1377660754503,18.6522
1377660814503,18.6311
1377660874503,18.6014
1377660934503,18.6603
1377660994503,18.5889
1377661054503,18.6597
1377661114503,18.7059
1377661174503,18.6654
1377661234503,18.6688
1377661294503,18.6445
1377661354503,18.6479
1377661414503,18.5965
1377661474503,18.5994
1377661534503,18.5668
1377661594503,18.5952
1377661654503,18.6387
1377661714503,18.6549
1377661774504,18.6572
1377661834503,18.6406
1377661894503,18.6518
1377661954503,18.6135
1377662014503,18.6752
1377662074503,18.6432
1377662134503,18.6270
1377662194503,18.6045
1377662254503,18.5862
1377662314503,18.6443
1377662374503,18.6526
1377662434513,18.6289
1377662494513,18.6905
1377662554513,18.6728
1377662614513,18.7148
1377662674513,18.6493
1377662734513,18.6284
1377662794514,18.5492
1377662854513,18.6139
1377662914513,18.5845
1377662974513,18.6077
1377663034513,18.6534
1377663094513,18.6765
1377663154513,18.5461
1377663214513,18.6299
1377663274513,18.6426
1377663334513,18.6779
1377663394513,18.5514
1377663454513,18.6320
1377663514513,18.6089
1377663574513,18.6151
1377663634513,18.6172
1377663694513,18.6173
1377663754513,18.5885
1377663814513,18.6035
1377663874513,18.6262
1377663934513,18.5387
1377663994513,18.5450
1377664054513,18.6342
1377664114513,18.6495
1377664174513,18.6162
1377664234513,18.6027
1377664294513,18.5717
1377664354513,18.6207
1377664414513,18.5827
1377664474513,18.6029
1377664534513,18.6013
1377664594513,18.6129
1377664654513,18.5948
1377664714513,18.4985
1377664774513,18.5713
1377664834513,18.6366
1377664894513,18.6302
1377664954513,18.6270
1377665014513,18.6262
1377665074513,18.6986
1377665134513,18.5915
1377665194513,18.6200
1377665254513,18.6736
1377665314513,18.6585
1377665374513,18.5998
1377665434513,18.6382
1377665494514,18.6252
1377665554513,18.6504
1377665614513,18.6272
1377665674513,18.6117
1377665734513,18.6229
1377665794513,18.6818
1377665854513,18.5614
1377665914513,18.6666
1377665974513,18.6053
1377666034523,18.5450
1377666094523,18.5728
1377666154523,18.5826
1377666214523,18.5542
1377666274523,18.5841
1377666334523,18.6022
1377666394523,18.5821
1377666454523,18.5755
1377666514523,18.6224
1377666574523,18.5814
1377666634523,18.6005
1377666694523,18.6188
1377666754523,18.6353
1377666814523,18.6943
1377666874523,18.5837
1377666934523,18.5783
1377666994523,18.5923
1377667054523,18.6678
1377667114523,18.5333
1377667174523,18.5671
1377667234523,18.6284
1377667294523,18.6604
1377667354523,18.6393
1377667414523,18.6536
1377667474523,18.6206
1377667534523,18.6090
1377667594523,18.5895
1377667654523,18.5773
1377667714523,18.5389
1377667774523,18.5890
1377667834523,18.5202
1377667894523,18.5746
1377667954523,18.5855
1377668014523,18.5501
1377668074523,18.6268
1377668134523,18.5786
1377668194523,18.5431
1377668254523,18.5288
1377668314523,18.5464
1377668374523,18.5564
1377668434523,18.5225
1377668494523,18.5779
1377668554523,18.5706
1377668614523,18.5451
1377668674523,18.5986
1377668734523,18.5341
1377668794523,18.5138
1377668854523,18.5135
1377668914523,18.5326
1377668974523,18.5798
1377669034523,18.5615
1377669094523,18.5526
1377669154523,18.5266
1377669214523,18.5632
1377669274523,18.5447
1377669334523,18.5045
1377669394523,18.5297
1377669454523,18.5632
1377669514523,18.5824
1377669574523,18.5566
1377669634533,18.5649
1377669694533,18.6158
1377669754533,18.5389
1377669814533,18.5330
1377669874533,18.5129
1377669934533,18.5676
1377669994533,18.5266
1377670054533,18.5569
1377670114533,18.5334
1377670174533,18.5803
1377670234533,18.6217
1377670294533,18.5219
1377670354533,18.6094
1377670414533,18.6268
1377670474533,18.6108
1377670534533,18.5344
1377670594533,18.5537
1377670654533,18.5788
1377670714533,18.5211
1377670774533,18.5260
1377670834533,18.5586
1377670894533,18.5417
1377670954533,18.4847
1377671014533,18.5431
1377671074533,18.5401
1377671134533,18.5809
1377671194533,18.4651
1377671254533,18.5570
1377671314533,18.4961
1377671374533,18.6074
1377671434533,18.5346
1377671494533,18.4899
1377671554533,18.5131
1377671614533,18.5183
1377671674533,18.4977
1377671734533,18.4935
1377671794533,18.5526
1377671854533,18.5136
1377671914533,18.5267
1377671974533,18.5041
1377672034533,18.5530
1377672094533,18.5528
1377672154533,18.5500
1377672214533,18.5764
1377672274533,18.5324
1377672334533,18.5108
1377672394533,18.4835
1377672454533,18.5349
1377672514533,18.4904
1377672574533,18.5047
1377672634533,18.4960
1377672694533,18.5343
1377672754533,18.5661
1377672814533,18.5119
1377672874533,18.6052
1377672934533,18.5458
1377672994533,18.6085
1377673054533,18.5920
1377673114533,18.5610
1377673174533,18.5931
1377673234543,18.6003
1377673294543,18.5524
1377673354543,18.5042
1377673414543,18.4827
1377673474543,18.5268
1377673534543,18.5801
1377673594543,18.4932
1377673654543,18.5622
1377673714543,18.5429
1377673774543,18.5280
1377673834543,18.5668
1377673894543,18.4925
1377673954543,18.5463
1377674014543,18.5100
1377674074543,18.5101
1377674134543,18.6162
1377674194543,18.5091
1377674254543,18.5394
1377674314543,18.5351
1377674374543,18.5399
1377674434543,18.5002
1377674494543,18.5734
1377674554543,18.5092
1377674614543,18.5083
1377674674543,18.5523
1377674734543,18.5120
1377674794543,18.5469
1377674854543,18.4989
1377674914543,18.5815
1377674974543,18.5814
1377675034543,18.5064
1377675094543,18.5771
1377675154543,18.5640
1377675214543,18.5275
1377675274543,18.5192
1377675334543,18.5055
1377675394543,18.5504
1377675454543,18.5553
1377675514543,18.5448
1377675574543,18.4989
1377675634543,18.5561
1377675694543,18.5093
1377675754543,18.5452
1377675814543,18.5470
1377675874543,18.6001
1377675934543,18.6097
1377675994543,18.6008
1377676054543,18.6032
1377676114543,18.5841
1377676174543,18.6012
1377676234543,18.6107
1377676294543,18.6123
1377676354543,18.5763
1377676414543,18.5896
1377676474543,18.5466
1377676534543,18.5506
1377676594543,18.5372
1377676654543,18.6163
1377676714543,18.5597
1377676774543,18.5631
1377676834553,18.5217
1377676894553,18.5456
1377676954553,18.5598
1377677014553,18.6050
1377677074553,18.5932
1377677134553,18.5464
1377677194553,18.5620
1377677254553,18.5394
1377677314553,18.6653
1377677374553,18.5555
1377677434553,18.5469
1377677494553,18.5481
1377677554553,18.5757
1377677614553,18.5379
1377677674553,18.5525
1377677734553,18.5814
1377677794553,18.4987
1377677854553,18.4835
1377677914553,18.5177
1377677974553,18.5195
1377678034553,18.5805
1377678094553,18.5015
1377678154553,18.5098
1377678214553,18.5387
1377678274553,18.5815
1377678334553,18.5161
1377678394553,18.5710
1377678454553,18.5413
1377678514553,18.5825
1377678574553,18.6354
1377678634553,18.6015
1377678694553,18.5412
1377678754553,18.5433
1377678814553,18.5300
1377678874553,18.5931
1377678934553,18.5386
1377678994553,18.5234
1377679054553,18.5261
1377679114553,18.5874
1377679174553,18.5234
1377679234553,18.5385
1377679294553,18.5994
1377679354553,18.5969
1377679414553,18.5429
1377679474553,18.6111
1377679534553,18.5767
1377679594553,18.6192
1377679654553,18.6246
1377679714553,18.6175
1377679774553,18.5808
1377679834553,18.5684
1377679894553,18.5743
1377679954553,18.5178
1377680014553,18.5582
1377680074553,18.5854
1377680134553,18.5784
1377680194553,18.5839
1377680254553,18.6187
1377680314553,18.5309
1377680374553,18.6428
1377680434564,18.5873
1377680494564,18.5521
1377680554563,18.5238
1377680614563,18.5868
1377680674563,18.5238
1377680734564,18.6223
1377680794564,18.6092
1377680854564,18.5348
1377680914564,18.5861
1377680974564,18.5685
1377681034564,18.6087
1377681094564,18.5400
1377681154564,18.6081
1377681214563,18.5999
1377681274563,18.5999
1377681334563,18.5345
1377681394563,18.5955
1377681454563,18.6064
1377681514563,18.6128
1377681574563,18.5623
1377681634563,18.5665
1377681694563,18.5458
1377681754564,18.6031
1377681814564,18.5695
1377681874563,18.5133
1377681934563,18.5559
1377681994563,18.5695
1377682054563,18.5416
1377682114564,18.5491
1377682174564,18.5558
1377682234564,18.5194
1377682294564,18.6202
1377682354564,18.5512
1377682414564,18.5872
1377682474564,18.5478
1377682534564,18.5800
1377682594563,18.5359
1377682654563,18.5998
1377682714563,18.6454
1377682774563,18.5941
1377682834563,18.5380
1377682894563,18.6638
1377682954563,18.5462
1377683014563,18.5805
1377683074563,18.5849
1377683134564,18.5564
1377683194564,18.4905
1377683254563,18.5959
1377683314563,18.5767
1377683374563,18.5790
1377683434564,18.5866
1377683494564,18.5153
1377683554564,18.6205
1377683614564,18.5761
1377683674564,18.5574
1377683734564,18.5545
1377683794564,18.5714
1377683854564,18.5158
1377683914563,18.5640
1377683974563,18.4907
1377684034574,18.5766
1377684094574,18.5506
1377684154574,18.5774
1377684214574,18.5564
1377684274574,18.5597
1377684334574,18.5484
1377684394574,18.5358
1377684454574,18.4922
1377684514574,18.4822
1377684574574,18.4939
1377684634574,18.6117
1377684694574,18.5405
1377684754574,18.4970
1377684814574,18.5669
1377684874573,18.5799
1377684934573,18.4833
1377684994574,18.5465
1377685054574,18.5943
1377685114574,18.5241
1377685174574,18.5123
1377685234574,18.5824
1377685294574,18.5530
1377685354574,18.5792
1377685414574,18.5913
1377685474574,18.5094
1377685534574,18.5105
1377685594574,18.5629
1377685654574,18.5334
1377685714574,18.5584
1377685774574,18.5233
1377685834574,18.5773
1377685894574,18.5423
1377685954574,18.4807
1377686014574,18.5580
1377686074574,18.5516
1377686134574,18.4653
1377686194574,18.4456
1377686254573,18.5308
1377686314573,18.5192
1377686374574,18.4980
1377686434574,18.5873
1377686494574,18.5413
1377686554574,18.5099
1377686614574,18.5329
1377686674574,18.5475
1377686734574,18.5786
1377686794574,18.5380
1377686854574,18.5092
1377686914574,18.5273
1377686974574,18.5159
1377687034574,18.5310
1377687094574,18.5256
1377687154574,18.6002
1377687214574,18.5213
1377687274574,18.5414
1377687334574,18.4968
1377687394574,18.4748
1377687454574,18.5848
1377687514574,18.5509
1377687574573,18.5164
1377687634584,18.5805
1377687694584,18.5315
1377687754584,18.6062
1377687814584,18.5700
1377687874584,18.5191
1377687934584,18.5839
1377687994584,18.5850
1377688054584,18.6203
1377688114584,18.5980
1377688174584,18.5977
1377688234584,18.5643
1377688294584,18.5693
1377688354584,18.5909
1377688414584,18.4872
1377688474584,18.5556
1377688534584,18.5378
1377688594584,18.5737
1377688654584,18.5858
1377688714584,18.6195
1377688774584,18.5474
1377688834584,18.5917
1377688894584,18.5250
1377688954584,18.5940
1377689014584,18.5666
1377689074584,18.6231
1377689134584,18.6137
1377689194584,18.5810
1377689254584,18.6038
1377689314584,18.6342
1377689374584,18.5832
1377689434584,18.5921
1377689494584,18.5707
1377689554584,18.5555
1377689614584,18.5708
1377689674584,18.5610
1377689734584,18.5157
1377689794584,18.5404
1377689854584,18.5047
1377689914584,18.4503
1377689974584,18.5469
1377690034584,18.5504
1377690094584,18.5140
1377690154584,18.4366
1377690214584,18.4873
1377690274584,18.5253
1377690334584,18.4996
1377690394584,18.4553
1377690454584,18.4336
1377690514584,18.5427
1377690574584,18.5328
1377690634584,18.4695
1377690694584,18.5105
1377690754584,18.5124
1377690814584,18.5242
1377690874584,18.5058
1377690934584,18.4610
1377690994584,18.4754
1377691054584,18.5060
1377691114584,18.4993
1377691174584,18.4824
1377691234594,18.5143
1377691294594,18.4828
1377691354594,18.4833
1377691414594,18.4738
1377691474594,18.5203
1377691534594,18.5257
1377691594594,18.4977
1377691654594,18.5093
1377691714594,18.5403
1377691774594,18.5760
1377691834594,18.5098
1377691894594,18.5834
1377691954594,18.5323
1377692014594,18.6003
1377692074594,18.5500
1377692134594,18.5293
1377692194594,18.5675
1377692254594,18.5189
1377692314594,18.5914
1377692374594,18.5489
1377692434594,18.5860
1377692494594,18.4816
1377692554594,18.5149
1377692614594,18.5244
1377692674594,18.5653
1377692734594,18.4954
1377692794594,18.4883
1377692854594,18.5777
1377692914594,18.4875
1377692974594,18.5172
1377693034594,18.5179
1377693094594,18.5692
1377693154594,18.4848
1377693214594,18.4880
1377693274594,18.4832
1377693334594,18.4936
1377693394594,18.4779
1377693454594,18.5098
1377693514594,18.5294
1377693574594,18.4868
1377693634594,18.4943
1377693694594,18.5820
1377693754594,18.5243
1377693814594,18.4756
1377693874594,18.5183
1377693934594,18.4685
1377693994594,18.4725
1377694054594,18.4453
1377694114594,18.4341
1377694174594,18.4330
1377694234594,18.4810
1377694294594,18.5343
1377694354594,18.4928
1377694414594,18.5056
1377694474594,18.4637
1377694534594,18.5145
1377694594594,18.5137
1377694654594,18.5658
1377694714594,18.5406
1377694774594,18.5193
1377694834604,18.5103
1377694894604,18.4679
1377694954604,18.5522
1377695014604,18.5053
1377695074604,18.4910
1377695134604,18.4721
1377695194604,18.5427
1377695254604,18.5219
1377695314604,18.5274
1377695374604,18.4479
1377695434604,18.5426
1377695494604,18.4612
1377695554604,18.5226
1377695614604,18.4915
1377695674604,18.4801
1377695734604,18.3848
1377695794604,18.4260
1377695854604,18.4830
1377695914604,18.4384
1377695974604,18.5626
1377696034604,18.4284
1377696094604,18.4759
1377696154604,18.3771
1377696214604,18.4895
1377696274604,18.4340
1377696334604,18.4851
1377696394604,18.5013
1377696454604,18.5018
1377696514604,18.3969
1377696574604,18.5065
1377696634604,18.5263
1377696694604,18.5711
1377696754604,18.5210
1377696814604,18.5439
1377696874604,18.5302
1377696934604,18.5520
1377696994604,18.4994
1377697054604,18.5680
1377697114604,18.5621
1377697174604,18.5425
1377697234604,18.4833
1377697294604,18.9319
1377697354604,18.5330
1377697414604,18.5390
1377697474604,18.4732
1377697534604,18.5183
1377697594604,18.5659
1377697654604,18.5086
1377697714604,18.4728
1377697774604,18.4977
1377697834604,18.5318
1377697894604,18.4438
1377697954604,18.4806
1377698014604,18.5371
1377698074604,18.5298
1377698134604,18.4877
1377698194604,18.5387
1377698254604,18.5145
1377698314604,18.4696
1377698374604,18.5532
1377698434614,18.5155
1377698494614,18.5275
1377698554614,18.4823
1377698614614,18.4345
1377698674614,18.4709
1377698734614,18.4484
1377698794614,18.4545
1377698854614,18.4952
1377698914614,18.4917
1377698974614,18.4539
1377699034614,18.4687
1377699094614,18.4594
1377699154614,18.4859
1377699214614,18.4629
1377699274614,18.5001
1377699334614,18.4648
1377699394614,18.4931
1377699454614,18.4642
1377699514614,18.4587
1377699574614,18.4201
1377699634614,18.4406
1377699694614,18.4145
1377699754614,18.4614
1377699814614,18.4347
1377699874614,18.4648
1377699934614,18.4519
1377699994614,18.5106
1377700054614,18.4887
1377700114614,18.4198
1377700174614,18.3851
1377700234614,18.4931
1377700294614,18.4608
1377700354614,18.4699
1377700414614,18.4562
1377700474614,18.4783
1377700534614,18.4940
1377700594614,18.4888
1377700654614,18.5640
1377700714614,18.5159
1377700774614,18.4808
1377700834614,18.4912
1377700894614,18.4761
1377700954614,18.4849
1377701014614,18.5449
1377701074614,18.5403
1377701134614,18.5545
1377701194614,18.5629
1377701254614,18.5028
1377701314614,18.5089
1377701374614,18.5640
1377701434614,18.5369
1377701494614,18.5568
1377701554614,18.5630
1377701614614,18.5835
1377701674614,18.5633
1377701734614,18.5083
1377701794614,18.5515
1377701854614,18.5816
1377701914614,18.5291
1377701974614,18.5605
1377702034625,18.4584
1377702094625,18.5237
1377702154625,18.4896
1377702214625,18.5054
1377702274625,18.5137
1377702334625,18.5428
1377702394625,18.4898
1377702454625,18.5341
1377702514625,18.4654
1377702574625,18.5050
1377702634625,18.4704
1377702694625,18.5499
1377702754625,18.5042
1377702814625,18.4982
1377702874625,18.4575
1377702934625,18.5279
1377702994625,18.5544
1377703054625,18.5229
1377703114625,18.5301
1377703174625,18.5587
1377703234625,18.5174
1377703294625,18.5773
1377703354625,18.5543
1377703414625,18.5238
1377703474625,18.5698
1377703534625,18.5281
1377703594625,18.5444
1377703654625,18.5722
1377703714625,18.6213
1377703774625,18.5730
1377703834625,18.6235
1377703894625,18.5655
1377703954625,18.5514
1377704014625,18.6287
1377704074625,18.5967
1377704134625,18.5643
1377704194625,18.6023
1377704254625,18.6650
1377704314625,18.6755
1377704374625,18.6526
1377704434625,18.6903
1377704494625,18.6900
1377704554625,18.7055
1377704614625,18.7260
1377704674625,18.7716
1377704734625,18.7862
1377704794625,18.7366
1377704854625,18.7178
1377704914625,18.7480
1377704974625,18.7706
1377705034625,18.7651
1377705094625,18.8198
1377705154625,18.8021
1377705214625,18.7338
1377705274625,18.7450
1377705334625,18.7684
1377705394625,18.7282
1377705454625,18.7489
1377705514625,18.7286
1377705574625,18.8166
1377705634636,18.8050
1377705694636,18.7521
1377705754636,18.7358
1377705814636,18.7395
1377705874636,18.7204
1377705934636,18.7332
1377705994636,18.7043
1377706054636,18.7720
1377706114636,18.7532
1377706174636,18.7468
1377706234636,18.7507
1377706294636,18.7930
1377706354636,18.7761
1377706414636,18.7982
1377706474636,18.8205
1377706534636,18.7594
1377706594636,18.8181
1377706654636,18.8215
1377706714636,18.7985
1377706774636,18.8385
1377706834636,18.8369
1377706894636,18.8505
1377706954636,18.8248
1377707014636,18.7949
1377707074636,18.7392
1377707134636,18.8317
1377707194636,18.7981
1377707254636,18.8428
1377707314636,18.7502
1377707374636,18.7909
1377707434636,18.7471
1377707494636,18.7356
1377707554636,18.7750
1377707614636,18.7567
1377707674636,18.7870
1377707734636,18.7804
1377707794636,18.7706
1377707854636,18.7385
1377707914636,18.6703
1377707974636,18.6773
1377708034636,18.7484
1377708094636,18.6756
1377708154636,18.6958
1377708214636,18.7163
1377708274636,18.7315
1377708334636,18.7114
1377708394636,18.7250
1377708454636,18.7521
1377708514636,18.6965
1377708574636,18.7045
1377708634636,18.7278
1377708694636,18.6995
1377708754636,18.6608
1377708814636,18.7124
1377708874636,18.6465
1377708934636,18.6443
1377708994636,18.6651
1377709054636,18.7183
1377709114636,18.6495
1377709174636,18.6707
1377709234647,18.6900
1377709294647,18.6658
1377709354647,18.6545
1377709414647,18.7217
1377709474647,18.6403
1377709534647,18.6743
1377709594647,18.6957
1377709654647,18.6694
1377709714647,18.7012
1377709774647,18.7034
1377709834647,18.7323
1377709894647,18.5188
1377710434647,18.5669
1377710494647,18.5642
1377710554647,18.6490
1377710614647,18.6597
1377710674647,18.6575
1377710734647,18.6761
1377710794647,18.6725
1377710854647,18.6562
1377710914647,18.7040
1377710974647,18.5542
1377711034647,18.6177
1377711094647,18.6895
1377711154647,18.6893
1377711214647,18.6505
1377711274647,18.6914
1377711334647,18.6432
1377711394647,18.5759
1377711454647,18.6158
1377711514647,18.5625
1377711574647,18.5711
1377711634647,18.5996
1377711694647,18.6137
1377711754647,18.6255
1377711814647,18.5999
1377711874647,18.6145
1377711934647,18.6583
1377711994647,18.6269
1377712054647,18.6049
1377712114647,18.5682
1377712174647,18.6094
1377712234647,18.5995
1377712294647,18.5415
1377712354647,18.5800
1377712414647,18.6209
1377712474647,18.5775
1377712534647,18.5530
1377712594647,18.6153
1377712654647,18.5893
1377712714647,18.5870
1377712774647,18.5666
1377712834658,18.5912
1377712894658,18.5492
1377712954658,18.5039
1377713014658,18.6103
1377713074658,18.5622
1377713134658,18.5456
1377713194658,18.5952
1377713254658,18.5991
1377713314658,18.5154
1377713374658,18.5898
1377713434658,18.5656
1377713494658,18.5795
1377713554658,18.5879
1377713614658,18.5380
1377713674658,18.5616
1377713734658,18.5472
1377713794658,18.6167
1377713854658,18.5471